McCook, NE

7:30 PM CST on November 20, 2017 (GMT -0600)
McCook Municipal

Weather History for KMCK - October, 2011

Change the Weather History Date:

Sunday, October 9, 2011

  Actual Average Record
Temperature  
Mean Temperature 50 °F 54 °F  
Max Temperature 54 °F 69 °F 98 °F (1928)
Min Temperature 45 °F 39 °F 20 °F (1952)
Degree Days  
Heating Degree Days 16    
Moisture  
Dew Point 46 °F    
Average Humidity 88    
Maximum Humidity 97    
Minimum Humidity 77    
Precipitation  
Precipitation 0.04 in 0.06 in 1.05 in (1982)
Month to date precipitation 1.18 0.52  
Year to date precipitation 18.73 19.67  
Sea Level Pressure  
Sea Level Pressure 30.05 in    
Wind  
Wind Speed 3 mph (SSW)    
Max Wind Speed 8 mph    
Max Gust Speed -    
Visibility 10 miles    
Events Rain    
T = Trace of Precipitation, MM = Missing Value Source: NWS Daily Summary

Daily Weather History Graph

Daily Weather History Graph

Search for Another Location

Airport or City:

Trip Planner

Search our weather history database for the weather conditions in past years. The results will help you decide how hot, cold, wet, or windy it might be!

Date:

Astronomy

Oct. 09, 2011 Rise Set
Actual Time 7:46 AM CDT 7:12 PM CDT
Civil Twilight 7:19 AM CDT 7:39 PM CDT
Nautical Twilight 6:47 AM CDT 8:10 PM CDT
Astronomical Twilight 6:16 AM CDT 8:42 PM CDT
Moon 5:50 PM CDT (10/9) 5:32 AM CDT (10/9)
Length of Visible Light 12h 19m
Length of Day
11h 25m
Waxing Gibbous, 95% of the Moon is Illuminated
Oct 9
Waxing Gibbous
Oct 11
Full
Oct 19
Last Quarter
Oct 26
New
Nov 2
First Quarter

Hourly Weather History & Observations

Time (CDT) Temp. Windchill Dew Point Humidity Pressure Visibility Wind Dir Wind Speed Gust Speed Precip Events Conditions
12:53 AM 48.9 °F - 44.1 °F 83% 30.05 in 10.0 mi SSW 3.5 mph - N/A   Clear
1:53 AM 46.9 °F - 44.1 °F 90% 30.04 in 10.0 mi Calm Calm - N/A   Clear
2:53 AM 46.0 °F - 43.0 °F 89% 30.06 in 10.0 mi Calm Calm - N/A   Clear
3:53 AM 46.0 °F - 43.0 °F 89% 30.05 in 10.0 mi Calm Calm - N/A   Clear
4:53 AM 46.9 °F - 42.1 °F 83% 30.06 in 10.0 mi Calm Calm - N/A   Clear
5:53 AM 46.0 °F - 43.0 °F 89% 30.07 in 10.0 mi Calm Calm - N/A   Clear
6:53 AM 45.0 °F 43.5 °F 43.0 °F 93% 30.07 in 10.0 mi SSW 3.5 mph - N/A   Clear
7:53 AM 46.0 °F - 44.1 °F 93% 30.07 in 10.0 mi Calm Calm - N/A   Clear
8:53 AM 46.0 °F - 45.0 °F 96% 30.09 in 10.0 mi Calm Calm - N/A   Mostly Cloudy
9:53 AM 48.9 °F - 45.0 °F 86% 30.09 in 10.0 mi Calm Calm - N/A   Overcast
10:53 AM 50.0 °F - 46.9 °F 89% 30.08 in 10.0 mi WSW 4.6 mph - N/A   Mostly Cloudy
11:53 AM 53.1 °F - 48.0 °F 83% 30.08 in 10.0 mi SSW 5.8 mph - N/A   Scattered Clouds
12:53 PM 54.0 °F - 46.9 °F 77% 30.06 in 10.0 mi SW 8.1 mph - N/A   Overcast
1:53 PM 53.1 °F - 48.0 °F 83% 30.05 in 6.0 mi SW 5.8 mph - 0.01 in Rain Light Rain
2:53 PM 53.6 °F - 48.2 °F 82% 30.02 in 6.0 mi WSW 3.5 mph - N/A Rain Light Rain
3:53 PM 54.0 °F - 48.9 °F 83% 30.02 in 10.0 mi Calm Calm - 0.01 in   Overcast
4:53 PM 54.0 °F - 51.1 °F 90% 30.02 in 10.0 mi SE 4.6 mph - N/A   Overcast
5:53 PM 54.0 °F - 51.1 °F 90% 30.03 in 10.0 mi SE 3.5 mph - N/A   Overcast
6:53 PM 54.0 °F - 51.1 °F 90% 30.03 in 10.0 mi SSE 5.8 mph - N/A   Mostly Cloudy
7:53 PM 52.0 °F - 50.0 °F 93% 30.04 in 10.0 mi South 4.6 mph - N/A   Partly Cloudy
8:53 PM 51.1 °F - 46.9 °F 86% 30.04 in 10.0 mi South 4.6 mph - N/A   Clear
9:53 PM 46.9 °F - 46.0 °F 97% 30.05 in 10.0 mi SSW 5.8 mph - N/A   Clear
10:53 PM 46.9 °F - 45.0 °F 93% 30.06 in 10.0 mi WSW 6.9 mph - N/A   Clear
11:53 PM 46.4 °F 44.3 °F 44.6 °F 93% 30.07 in 10.0 mi SW 4.6 mph - N/A   Clear